TimeCDT,TemperatureF,Dew PointF,Humidity,Sea Level PressureIn,VisibilityMPH,Wind Direction,Wind SpeedMPH,Gust SpeedMPH,PrecipitationIn,Events,Conditions,WindDirDegrees,DateUTC
12:35 AM,68.0,60.8,78,29.76,10.0,South,12.7,-,N/A,,Clear,170,2012-10-25 05:35:00
12:55 AM,68.0,60.8,78,29.75,10.0,South,13.8,-,N/A,,Clear,180,2012-10-25 05:55:00
1:15 AM,66.2,60.8,83,29.75,10.0,South,13.8,-,N/A,,Clear,170,2012-10-25 06:15:00
1:35 AM,66.2,60.8,83,29.75,10.0,South,15.0,-,N/A,,Clear,180,2012-10-25 06:35:00
1:55 AM,66.2,60.8,83,29.75,10.0,South,15.0,-,N/A,,Scattered Clouds,180,2012-10-25 06:55:00
2:35 AM,66.2,59.0,78,29.74,10.0,South,17.3,20.7,N/A,,Clear,180,2012-10-25 07:35:00
2:55 AM,66.2,59.0,78,29.74,10.0,South,17.3,21.9,N/A,,Scattered Clouds,190,2012-10-25 07:55:00
3:15 AM,68.0,59.0,73,29.73,10.0,South,17.3,23.0,N/A,,Mostly Cloudy,190,2012-10-25 08:15:00
3:35 AM,68.0,59.0,73,29.74,10.0,South,15.0,21.9,N/A,,Mostly Cloudy,190,2012-10-25 08:35:00
3:55 AM,68.0,59.0,73,29.74,10.0,SSW,16.1,-,N/A,,Mostly Cloudy,200,2012-10-25 08:55:00
4:15 AM,68.0,59.0,73,29.73,10.0,South,18.4,-,N/A,,Partly Cloudy,190,2012-10-25 09:15:00
4:35 AM,68.0,59.0,73,29.72,10.0,South,17.3,-,N/A,,Partly Cloudy,190,2012-10-25 09:35:00
4:55 AM,66.2,59.0,78,29.72,10.0,South,16.1,23.0,N/A,,Partly Cloudy,180,2012-10-25 09:55:00
5:15 AM,66.2,59.0,78,29.72,10.0,South,16.1,23.0,N/A,,Clear,190,2012-10-25 10:15:00
5:35 AM,66.2,59.0,78,29.71,10.0,South,16.1,24.2,N/A,,Clear,180,2012-10-25 10:35:00
5:55 AM,66.2,59.0,78,29.71,10.0,South,20.7,29.9,N/A,,Partly Cloudy,180,2012-10-25 10:55:00
6:35 AM,66.2,59.0,78,29.72,10.0,South,19.6,27.6,N/A,,Clear,190,2012-10-25 11:35:00
6:55 AM,66.2,59.0,78,29.72,10.0,South,17.3,27.6,N/A,,Clear,190,2012-10-25 11:55:00
7:15 AM,66.2,59.0,78,29.71,10.0,South,17.3,24.2,N/A,,Partly Cloudy,190,2012-10-25 12:15:00
7:35 AM,66.2,59.0,78,29.71,10.0,South,19.6,25.3,N/A,,Scattered Clouds,190,2012-10-25 12:35:00
7:55 AM,66.2,59.0,78,29.71,10.0,South,17.3,26.5,N/A,,Partly Cloudy,190,2012-10-25 12:55:00
8:35 AM,68.0,59.0,73,29.70,10.0,SSW,21.9,29.9,N/A,,Mostly Cloudy,200,2012-10-25 13:35:00
8:55 AM,68.0,59.0,73,29.70,10.0,SSW,21.9,31.1,N/A,,Mostly Cloudy,200,2012-10-25 13:55:00
9:15 AM,68.0,59.0,73,29.69,10.0,SSW,20.7,28.8,N/A,,Mostly Cloudy,200,2012-10-25 14:15:00
9:55 AM,69.8,60.8,73,29.69,10.0,SSW,27.6,35.7,N/A,,Mostly Cloudy,200,2012-10-25 14:55:00
10:35 AM,69.8,60.8,73,29.68,10.0,SSW,25.3,35.7,N/A,,Mostly Cloudy,200,2012-10-25 15:35:00
10:55 AM,69.8,60.8,73,29.67,10.0,South,21.9,33.4,N/A,,Overcast,190,2012-10-25 15:55:00
11:15 AM,69.8,60.8,73,29.66,10.0,South,23.0,29.9,N/A,,Overcast,190,2012-10-25 16:15:00
11:35 AM,69.8,60.8,73,29.67,10.0,South,19.6,29.9,N/A,,Overcast,190,2012-10-25 16:35:00
12:15 PM,71.6,60.8,69,29.66,10.0,SSW,18.4,25.3,N/A,,Overcast,200,2012-10-25 17:15:00
12:35 PM,71.6,60.8,69,29.65,10.0,SSW,21.9,-,N/A,,Overcast,210,2012-10-25 17:35:00
12:55 PM,71.6,60.8,69,29.64,10.0,SSW,20.7,-,N/A,,Overcast,200,2012-10-25 17:55:00
1:15 PM,62.6,53.6,72,29.68,10.0,WNW,21.9,29.9,N/A,,Overcast,290,2012-10-25 18:15:00
1:35 PM,57.2,50.0,77,29.70,10.0,West,23.0,31.1,N/A,,Overcast,280,2012-10-25 18:35:00
1:55 PM,53.6,48.2,82,29.72,4.0,West,21.9,28.8,N/A,,Overcast,280,2012-10-25 18:55:00
2:15 PM,50.0,46.4,87,29.74,4.0,WNW,24.2,33.4,N/A,,Overcast,300,2012-10-25 19:15:00
2:35 PM,48.2,42.8,82,29.75,9.0,WNW,18.4,24.2,N/A,,Overcast,290,2012-10-25 19:35:00
3:15 PM,46.4,42.8,87,29.79,5.0,WNW,17.3,25.3,N/A,,Mostly Cloudy,290,2012-10-25 20:15:00
3:35 PM,46.4,42.8,87,29.80,8.0,WNW,18.4,24.2,0.01,,Overcast,300,2012-10-25 20:35:00
3:55 PM,46.4,41.0,81,29.84,8.0,WNW,19.6,26.5,0.03,,Overcast,290,2012-10-25 20:55:00
4:15 PM,44.6,39.2,81,29.85,7.0,WNW,17.3,25.3,0.14,Thunderstorm,Thunderstorm,290,2012-10-25 21:15:00
4:35 PM,44.6,39.2,81,29.86,6.0,WNW,19.6,27.6,0.16,,Overcast,300,2012-10-25 21:35:00
4:55 PM,44.6,39.2,81,29.87,10.0,WNW,20.7,24.2,0.16,,Overcast,300,2012-10-25 21:55:00
5:15 PM,42.8,37.4,81,29.90,10.0,WNW,17.3,27.6,N/A,,Overcast,300,2012-10-25 22:15:00
5:35 PM,42.8,37.4,81,29.92,10.0,NW,18.4,27.6,N/A,,Overcast,310,2012-10-25 22:35:00
5:55 PM,42.8,37.4,81,29.93,10.0,NW,17.3,26.5,N/A,,Mostly Cloudy,320,2012-10-25 22:55:00
6:15 PM,42.8,37.4,81,29.95,10.0,NW,15.0,23.0,N/A,,Overcast,320,2012-10-25 23:15:00
6:35 PM,42.8,35.6,76,29.96,10.0,NW,17.3,28.8,N/A,,Overcast,320,2012-10-25 23:35:00
6:55 PM,42.8,35.6,76,29.97,10.0,NNW,21.9,28.8,N/A,,Overcast,330,2012-10-25 23:55:00
7:15 PM,44.6,35.6,71,30.00,10.0,NW,13.8,26.5,N/A,,Overcast,320,2012-10-26 00:15:00
7:35 PM,44.6,35.6,71,30.01,10.0,NW,18.4,25.3,N/A,,Overcast,320,2012-10-26 00:35:00
7:55 PM,44.6,35.6,71,30.03,10.0,NW,17.3,21.9,N/A,,Overcast,320,2012-10-26 00:55:00
8:15 PM,44.6,35.6,71,30.03,10.0,NW,16.1,26.5,N/A,,Overcast,310,2012-10-26 01:15:00
8:35 PM,42.8,35.6,76,30.05,10.0,NW,18.4,25.3,N/A,,Overcast,310,2012-10-26 01:35:00
8:55 PM,42.8,33.8,70,30.07,10.0,NW,15.0,26.5,N/A,,Overcast,320,2012-10-26 01:55:00
9:15 PM,41.0,33.8,76,30.09,10.0,NW,21.9,27.6,N/A,,Overcast,310,2012-10-26 02:15:00
9:35 PM,41.0,32.0,70,30.10,10.0,NW,19.6,27.6,N/A,,Overcast,320,2012-10-26 02:35:00
9:55 PM,41.0,32.0,70,30.11,10.0,NW,19.6,26.5,N/A,,Overcast,320,2012-10-26 02:55:00
10:15 PM,39.2,30.2,70,30.13,10.0,NNW,17.3,24.2,N/A,,Overcast,330,2012-10-26 03:15:00
10:35 PM,39.2,30.2,70,30.14,10.0,NW,18.4,25.3,N/A,,Overcast,320,2012-10-26 03:35:00
10:55 PM,39.2,30.2,70,30.15,10.0,NNW,16.1,-,N/A,,Mostly Cloudy,330,2012-10-26 03:55:00
11:15 PM,37.4,28.4,70,30.16,10.0,NW,13.8,-,N/A,,Partly Cloudy,320,2012-10-26 04:15:00
11:35 PM,37.4,28.4,70,30.17,10.0,NW,12.7,-,N/A,,Scattered Clouds,320,2012-10-26 04:35:00
11:55 PM,39.2,28.4,65,30.18,10.0,NW,13.8,23.0,N/A,,Overcast,320,2012-10-26 04:55:00